Weather History for Dundee, United Kingdom

Change the Weather History Date:

Monday, December 3, 2012

  Actual Average Record
Temperature  
Mean Temperature 34 °F -  
Max Temperature 37 °F 42 °F 51 °F (2004)
Min Temperature 32 °F 36 °F 21 °F (2010)
Degree Days  
Heating Degree Days 30    
Moisture  
Dew Point 33 °F    
Average Humidity 92    
Maximum Humidity 100    
Minimum Humidity 87    
Precipitation  
Precipitation 0.00 in - - ()
Sea Level Pressure  
Sea Level Pressure 29.46 in    
Wind  
Wind Speed 10 mph ()    
Max Wind Speed 138 mph    
Max Gust Speed -    
Visibility 5.7 miles    
Events Rain , Snow    
Averages and records for this station are not official NWS values.
T = Trace of Precipitation, MM = Missing Value Source: Averaged Metar Reports

Daily Weather History Graph

Daily Weather History Graph

Search for Another Location

Airport:

Trip Planner

Search our weather history database for the weather conditions in past years. The results will help you decide how hot, cold, wet, or windy it might be!

Date:

Astronomy

Dec. 03, 2012 Rise Set
Actual Time 8:25 AM GMT 3:38 PM GMT
Civil Twilight 7:38 AM GMT 4:24 PM GMT
Nautical Twilight 6:50 AM GMT 5:13 PM GMT
Astronomical Twilight 6:04 AM GMT 5:59 PM GMT
Moon 8:41 PM GMT (12/3) 11:14 AM GMT (12/3)
Length of Visible Light 8h 46m
Length of Day
7h 12m
Waning Gibbous, 80% of the Moon is Illuminated
Dec 3
Waning Gibbous
Dec 6
Last Quarter
Dec 13
New
Dec 20
First Quarter
Dec 28
Full

Hourly Weather History & Observations

Time (GMT) Temp. Windchill Dew Point Humidity Pressure Visibility Wind Dir Wind Speed Gust Speed Precip Events Conditions
6:50 AM 33.8 °F 29.6 °F 33.8 °F 100% 29.56 in 3.7 mi East 4.6 mph - N/A Rain , Snow Light Rain
7:20 AM 35.6 °F 32.8 °F 33.8 °F 93% 29.53 in 3.7 mi East 3.5 mph - N/A Rain Rain
7:50 AM 35.6 °F - 33.8 °F 93% 29.53 in 5.0 mi Calm Calm - N/A   Mostly Cloudy
8:20 AM 35.6 °F 30.7 °F 33.8 °F 93% 29.53 in 5.0 mi SSW 5.8 mph - N/A   Mostly Cloudy
8:50 AM 35.6 °F 28.6 °F 33.8 °F 93% 29.53 in 5.0 mi WSW 9.2 mph - N/A   Mostly Cloudy
9:20 AM 33.8 °F 26.4 °F 32.0 °F 93% 29.53 in 5.0 mi WSW 9.2 mph - N/A   Mostly Cloudy
9:50 AM 32.0 °F 24.2 °F 32.0 °F 100% 29.50 in 5.0 mi WSW 9.2 mph - N/A   Mostly Cloudy
10:20 AM 33.8 °F 25.8 °F 32.0 °F 93% 29.50 in 5.0 mi WSW 10.4 mph - N/A   Mostly Cloudy
10:50 AM 32.0 °F 23.0 °F 32.0 °F 100% 29.50 in 4.3 mi WSW 11.5 mph - N/A   Mostly Cloudy
11:20 AM 33.8 °F 25.3 °F 32.0 °F 93% 29.47 in 5.0 mi WSW 11.5 mph - N/A   Mostly Cloudy
11:50 AM 33.8 °F 24.3 °F 32.0 °F 93% 29.47 in 6.2 mi WSW 13.8 mph - N/A   Mostly Cloudy
12:20 PM 33.8 °F 24.3 °F 32.0 °F 93% 29.47 in 6.2 mi WSW 13.8 mph - N/A   Mostly Cloudy
12:50 PM 33.8 °F - 32.0 °F 93% 29.44 in 6.2 mi West 138.1 mph - N/A   Mostly Cloudy
1:20 PM 33.8 °F 25.3 °F 32.0 °F 93% 29.44 in 6.2 mi West 11.5 mph - N/A   Scattered Clouds
1:50 PM 33.8 °F 25.3 °F 32.0 °F 93% 29.44 in 6.2 mi West 11.5 mph - N/A   Scattered Clouds
2:20 PM 33.8 °F 27.7 °F 32.0 °F 93% 29.44 in 6.2 mi NW 6.9 mph - N/A   Scattered Clouds
2:50 PM 33.8 °F 27.7 °F 32.0 °F 93% 29.42 in 6.2 mi NW 6.9 mph - N/A   Partly Cloudy
3:20 PM 33.8 °F 27.7 °F 32.0 °F 93% 29.42 in 6.2 mi West 6.9 mph - N/A   Partly Cloudy
3:50 PM 33.8 °F 27.7 °F 32.0 °F 93% 29.42 in 6.2 mi West 6.9 mph - N/A   Partly Cloudy
4:20 PM 33.8 °F 27.0 °F 32.0 °F 93% 29.42 in 6.2 mi NW 8.1 mph - N/A   Partly Cloudy
4:50 PM 33.8 °F 27.7 °F 32.0 °F 93% 29.42 in 6.2 mi WNW 6.9 mph - N/A   Partly Cloudy
5:20 PM 35.6 °F 28.0 °F 32.0 °F 87% 29.42 in 6.2 mi West 10.4 mph - N/A   Partly Cloudy
5:50 PM 35.6 °F 29.2 °F 33.8 °F 93% 29.42 in 6.2 mi WNW 8.1 mph - N/A   Partly Cloudy
6:20 PM 37.4 °F 31.4 °F 33.8 °F 87% 29.42 in 6.2 mi WNW 8.1 mph - N/A   Partly Cloudy
6:50 PM 35.6 °F 27.1 °F 32.0 °F 87% 29.42 in 6.2 mi West 12.7 mph - N/A   Partly Cloudy
7:20 PM 35.6 °F 28.6 °F 32.0 °F 87% 29.42 in 6.2 mi WNW 9.2 mph - N/A   Partly Cloudy
7:50 PM 35.6 °F 29.2 °F 33.8 °F 93% 29.42 in 6.2 mi West 8.1 mph - N/A   Partly Cloudy
8:50 PM 37.4 °F 29.3 °F 33.8 °F 87% 29.42 in 6.2 mi West 12.7 mph - N/A   Partly Cloudy
9:20 PM 35.6 °F 30.7 °F 32.0 °F 87% 29.42 in 6.2 mi WNW 5.8 mph - N/A   Partly Cloudy
9:50 PM 35.6 °F 29.9 °F 32.0 °F 87% 29.42 in 6.2 mi WNW 6.9 mph - N/A   Partly Cloudy